| time (UTC) | temp C | wind direction | speed KPH | gust KPH | rain 1hr cm | rain 24hr cm | rain mn cm | humidity % | barometer mb |
| 20260504060104 | 2 | 0.0 | 0.0 | 0.00 | 0.00 | 0.00 | 100 | 1024.2 | |
| 20260504050353 | 3 | 0.0 | 0.0 | 0.00 | 0.00 | 0.00 | 100 | 1025.2 | |
| 20260504045421 | 3 | 0.0 | 0.0 | 0.00 | 0.00 | 0.00 | 100 | 1025.2 | |
| 20260504044444 | 4 | 0.0 | 0.0 | 0.00 | 0.00 | 0.00 | 100 | 1025.2 | |
| 20260504043515 | 4 | 0.0 | 0.0 | 0.00 | 0.00 | 0.00 | 100 | 1025.3 | |
| 20260504042540 | 4 | 0.0 | 0.0 | 0.00 | 0.00 | 0.00 | 100 | 1025.0 | |
| 20260504041609 | 4 | 0.0 | 0.0 | 0.00 | 0.00 | 0.00 | 100 | 1024.9 | |
| 20260504040644 | 4 | 0.0 | 0.0 | 0.00 | 0.00 | 0.00 | 100 | 1024.8 | |
| 20260504035702 | 5 | 0.0 | 0.0 | 0.00 | 0.00 | 0.00 | 100 | 1024.8 | |
| 20260504034739 | 5 | 0.0 | 0.0 | 0.00 | 0.00 | 0.00 | 100 | 1024.8 | |
| 20260504033801 | 5 | 0.0 | 0.0 | 0.00 | 0.00 | 0.00 | 100 | 1024.6 | |
| 20260504032827 | 5 | 0.0 | 0.0 | 0.00 | 0.00 | 0.00 | 100 | 1024.5 | |
| 20260504030922 | 5 | 0.0 | 0.0 | 0.00 | 0.00 | 0.00 | 100 | 1023.6 | |
| 20260504025952 | 6 | 0.0 | 0.0 | 0.00 | 0.00 | 0.00 | 100 | 1023.4 | |
| 20260504025021 | 6 | 0.0 | 0.0 | 0.00 | 0.00 | 0.00 | 100 | 1023.2 | |
| 20260504024053 | 6 | 0.0 | 0.0 | 0.00 | 0.00 | 0.00 | 100 | 1022.9 | |
| 20260504023114 | 6 | 0.0 | 0.0 | 0.00 | 0.00 | 0.00 | 100 | 1023.0 | |
| 20260504022143 | 6 | 0.0 | 0.0 | 0.00 | 0.00 | 0.00 | 100 | 1022.9 | |
| 20260504021212 | 7 | 0.0 | 0.0 | 0.00 | 0.00 | 0.00 | 100 | 1022.8 | |
| 20260504020235 | 7 | 0.0 | 0.0 | 0.00 | 0.00 | 0.00 | 100 | 1022.6 | |
| 20260504015312 | 7 | 0.0 | 0.0 | 0.00 | 0.00 | 0.00 | 100 | 1022.5 | |
| 20260504014332 | 8 | 0.0 | 0.0 | 0.00 | 0.00 | 0.00 | 100 | 1022.5 | |
| 20260504013403 | 8 | 0.0 | 0.0 | 0.00 | 0.00 | 0.00 | 100 | 1022.8 | |
| 20260504012429 | 8 | 0.0 | 0.0 | 0.00 | 0.00 | 0.00 | 100 | 1022.8 | |
| 20260504011455 | 8 | 0.0 | 0.0 | 0.00 | 0.00 | 0.00 | 100 | 1022.6 | |
| 20260504010527 | 9 | 0.0 | 0.0 | 0.00 | 0.00 | 0.00 | 100 | 1022.8 | |
| 20260504005555 | 10 | 0.0 | 0.0 | 0.00 | 0.00 | 0.00 | 100 | 1022.9 | |
| 20260504004619 | 10 | 0.0 | 0.0 | 0.00 | 0.00 | 0.00 | 100 | 1022.9 | |
| 20260504003646 | 10 | 0.0 | 0.0 | 0.00 | 0.00 | 0.00 | 100 | 1022.9 | |
| 20260504002711 | 11 | 0.0 | 0.0 | 0.00 | 0.00 | 0.00 | 100 | 1022.9 | |
| 20260504000814 | 12 | 0.0 | 0.0 | 0.00 | 0.00 | 0.00 | 100 | 1022.7 | |
| 20260503235839 | 12 | 0.0 | 0.0 | 0.00 | 0.00 | 0.00 | 100 | 1022.6 | |
| 20260503234904 | 13 | 0.0 | 0.0 | 0.00 | 0.00 | 0.00 | 100 | 1022.4 | |
| 20260503233941 | 13 | 0.0 | 0.0 | 0.00 | 0.00 | 0.00 | 100 | 1022.4 | |
| 20260503232036 | 14 | 0.0 | 0.0 | 0.00 | 0.00 | 0.00 | 100 | 1022.2 | |
| 20260503231100 | 15 | 0.0 | 0.0 | 0.00 | 0.00 | 0.00 | 100 | 1022.1 | |
| 20260503230123 | 15 | 0.0 | 0.0 | 0.00 | 0.00 | 0.00 | 100 | 1022.1 | |
| 20260503225157 | 15 | 0.0 | 0.0 | 0.00 | 0.00 | 0.00 | 100 | 1022.0 | |
| 20260503224216 | 15 | 0.0 | 0.0 | 0.00 | 0.00 | 0.00 | 100 | 1021.8 | |
| 20260503223251 | 15 | 0.0 | 0.0 | 0.00 | 0.00 | 0.00 | 100 | 1021.9 | |
| 20260503222312 | 16 | 0.0 | 0.0 | 0.00 | 0.00 | 0.00 | 100 | 1021.9 | |
| 20260503221346 | 16 | 0.0 | 0.0 | 0.00 | 0.00 | 0.00 | 100 | 1022.1 | |
| 20260503220407 | 16 | 0.0 | 0.0 | 0.00 | 0.00 | 0.00 | 100 | 1022.1 | |
| 20260503215441 | 16 | 0.0 | 0.0 | 0.00 | 0.00 | 0.00 | 100 | 1022.1 | |
| 20260503214505 | 16 | 0.0 | 0.0 | 0.00 | 0.00 | 0.00 | 100 | 1022.1 | |
| 20260503213534 | 16 | 0.0 | 0.0 | 0.00 | 0.00 | 0.00 | 100 | 1022.0 | |
| 20260503212601 | 17 | 0.0 | 0.0 | 0.00 | 0.00 | 0.00 | 100 | 1022.0 | |
| 20260503211634 | 17 | 0.0 | 0.0 | 0.00 | 0.00 | 0.00 | 100 | 1022.0 | |
| 20260503210655 | 18 | 0.0 | 0.0 | 0.00 | 0.00 | 0.00 | 100 | 1021.9 | |
| 20260503205731 | 18 | 0.0 | 0.0 | 0.00 | 0.00 | 0.00 | 100 | 1021.9 | |
| 20260503204754 | 19 | 0.0 | 0.0 | 0.00 | 0.00 | 0.00 | 100 | 1021.8 | |
| 20260503203824 | 20 | 0.0 | 0.0 | 0.00 | 0.00 | 0.00 | 100 | 1021.7 | |
| 20260503202848 | 20 | 0.0 | 0.0 | 0.00 | 0.00 | 0.00 | 100 | 1021.8 | |
| 20260503200944 | 19 | 0.0 | 0.0 | 0.00 | 0.00 | 0.00 | 100 | 1022.1 | |
| 20260503200009 | 19 | 0.0 | 0.0 | 0.00 | 0.00 | 0.00 | 100 | 1022.2 | |
| 20260503195036 | 18 | 0.0 | 0.0 | 0.00 | 0.00 | 0.00 | 100 | 1022.6 | |
| 20260503194105 | 19 | 0.0 | 0.0 | 0.00 | 0.00 | 0.00 | 100 | 1022.4 | |
| 20260503193128 | 19 | 0.0 | 0.0 | 0.00 | 0.00 | 0.00 | 100 | 1022.4 | |
| 20260503192157 | 17 | 0.0 | 0.0 | 0.00 | 0.00 | 0.00 | 100 | 1022.9 | |
| 20260503191223 | 18 | 0.0 | 0.0 | 0.00 | 0.00 | 0.00 | 100 | 1022.9 | |
| 20260503190252 | 18 | 0.0 | 0.0 | 0.00 | 0.00 | 0.00 | 100 | 1023.3 | |
| 20260503185320 | 17 | 0.0 | 0.0 | 0.00 | 0.00 | 0.00 | 100 | 1023.3 | |
| 20260503184348 | 20 | 0.0 | 0.0 | 0.00 | 0.00 | 0.00 | 100 | 1023.0 | |
| 20260503183416 | 18 | 0.0 | 0.0 | 0.00 | 0.00 | 0.00 | 100 | 1023.3 | |
| 20260503182443 | 16 | 0.0 | 0.0 | 0.00 | 0.00 | 0.00 | 100 | 1023.7 | |
| 20260503181510 | 16 | 0.0 | 0.0 | 0.00 | 0.00 | 0.00 | 100 | 1023.8 | |
| 20260503180534 | 16 | 0.0 | 0.0 | 0.00 | 0.00 | 0.00 | 100 | 1023.7 | |
| 20260503175608 | 17 | 0.0 | 0.0 | 0.00 | 0.00 | 0.00 | 100 | 1023.9 | |
| 20260503174630 | 16 | 0.0 | 0.0 | 0.00 | 0.00 | 0.00 | 100 | 1024.2 | |
| 20260503173653 | 16 | 0.0 | 0.0 | 0.00 | 0.00 | 0.00 | 100 | 1024.0 | |
| 20260503172722 | 16 | 0.0 | 0.0 | 0.00 | 0.00 | 0.00 | 100 | 1024.3 | |
| 20260503171758 | 16 | 0.0 | 0.0 | 0.00 | 0.00 | 0.00 | 100 | 1024.2 | |
| 20260503170814 | 16 | 0.0 | 0.0 | 0.00 | 0.00 | 0.00 | 100 | 1024.2 | |
| 20260503160114 | 15 | 0.0 | 0.0 | 0.00 | 0.00 | 0.00 | 100 | 1024.9 | |
| 20260503150356 | 13 | 0.0 | 0.0 | 0.00 | 0.00 | 0.00 | 100 | 1025.4 | |
| 20260503130914 | 10 | 0.0 | 0.0 | 0.00 | 0.00 | 0.00 | 100 | 1025.2 | |
| 20260503120220 | 7 | 0.0 | 0.0 | 0.00 | 0.00 | 0.00 | 100 | 1025.2 | |
| 20260503110459 | 3 | 0.0 | 0.0 | 0.00 | 0.00 | 0.00 | 100 | 1025.6 | |
| 20260503081314 | 4 | 0.0 | 0.0 | 0.00 | 0.00 | 0.00 | 100 | 1024.7 | |
| 20260503080336 | 4 | 0.0 | 0.0 | 0.00 | 0.00 | 0.00 | 100 | 1024.7 | |
| 20260503072526 | 5 | 0.0 | 0.0 | 0.00 | 0.00 | 0.00 | 100 | 1025.0 |